When you browse on this site, cookies collect data to enhance your experience and personalize the content and advertising you see.
Visit our Privacy Policy to learn more. By continuing to use the site, you agree to this use of cookies and data.
  • în România
  • Lista ţărilor
  • Pe 7 zile
  • Temperatura apei
  • Hartă satelitară
  • Meteo pe hartă
  • Widget-uri
  • user-avatar
    Intrare

    Meteo pe oră la Arona

    Astăzi, 22 Februarie, Vineri

    Timp Temperatura Precipitaţii Vânt Presiune Umiditate
    00:00 +9°C° 0 mm 1 m/s 744 mmHg 62%
    01:00 +9°C° 0 mm 1 m/s 744 mmHg 59%
    02:00 +9°C° 0 mm 1 m/s 744 mmHg 58%
    03:00 +9°C° 0 mm 1 m/s 744 mmHg 56%
    04:00 +8°C° 0 mm 1 m/s 744 mmHg 55%
    05:00 +8°C° 0 mm 1 m/s 744 mmHg 55%
    06:00 +7°C° 0 mm 2 m/s 744 mmHg 55%
    07:00 +7°C° 0 mm 2 m/s 743 mmHg 56%
    08:00 +10°C° 0 mm 1 m/s 743 mmHg 52%
    09:00 +12°C° 0 mm 1 m/s 743 mmHg 49%
    10:00 +14°C° 0 mm 1 m/s 743 mmHg 45%
    11:00 +15°C° 0 mm 1 m/s 742 mmHg 42%
    12:00 +18°C° 0 mm 1 m/s 742 mmHg 39%
    13:00 +19°C° 0 mm 1 m/s 742 mmHg 36%
    14:00 +19°C° 0 mm 1 m/s 742 mmHg 37%
    15:00 +19°C° 0 mm 1 m/s 742 mmHg 38%
    16:00 +19°C° 0 mm 1 m/s 742 mmHg 39%
    17:00 +18°C° 0 mm 1 m/s 743 mmHg 44%
    18:00 +15°C° 0 mm 1 m/s 743 mmHg 50%
    19:00 +13°C° 0 mm 1 m/s 744 mmHg 55%
    20:00 +13°C° 0 mm 1 m/s 744 mmHg 56%
    21:00 +12°C° 0 mm 1 m/s 745 mmHg 57%
    22:00 +10°C° 0 mm 2 m/s 745 mmHg 59%
    23:00 +10°C° 0 mm 2 m/s 745 mmHg 59%

    Mâine, 23 Februarie, Sâmbătă

    Timp Temperatura Precipitaţii Vânt Presiune Umiditate
    00:00 +10°C° 0 mm 1 m/s 745 mmHg 59%
    01:00 +10°C° 0 mm 1 m/s 745 mmHg 59%
    02:00 +10°C° 0 mm 1 m/s 745 mmHg 58%
    03:00 +9°C° 0 mm 1 m/s 745 mmHg 58%
    04:00 +9°C° 0 mm 1 m/s 745 mmHg 57%
    05:00 +8°C° 0 mm 1 m/s 745 mmHg 61%
    06:00 +8°C° 0 mm 1 m/s 745 mmHg 65%
    07:00 +7°C° 0 mm 1 m/s 745 mmHg 69%
    08:00 +7°C° 0 mm 2 m/s 745 mmHg 69%
    09:00 +7°C° 0 mm 2 m/s 745 mmHg 68%
    10:00 +7°C° 0 mm 3 m/s 745 mmHg 68%
    11:00 +7°C° 0 mm 2 m/s 745 mmHg 65%
    12:00 +8°C° 0 mm 2 m/s 745 mmHg 63%
    13:00 +8°C° 0 mm 2 m/s 745 mmHg 60%
    14:00 +8°C° 0 mm 2 m/s 745 mmHg 60%
    15:00 +8°C° 0 mm 2 m/s 744 mmHg 59%
    16:00 +8°C° 0 mm 2 m/s 744 mmHg 59%
    17:00 +7°C° 0 mm 2 m/s 745 mmHg 62%
    18:00 +6°C° 0 mm 2 m/s 745 mmHg 65%
    19:00 +5°C° 0 mm 2 m/s 745 mmHg 68%
    20:00 +6°C° 0 mm 1 m/s 746 mmHg 69%
    21:00 +5°C° 0 mm 1 m/s 746 mmHg 69%
    22:00 +5°C° 0 mm 1 m/s 747 mmHg 70%
    23:00 +5°C° 0 mm 1 m/s 747 mmHg 70%

    Poimâine, 24 Februarie, Duminică

    Timp Temperatura Precipitaţii Vânt Presiune Umiditate
    00:00 +4°C° 0 mm 1 m/s 747 mmHg 70%
    01:00 +4°C° 0 mm 1 m/s 747 mmHg 70%
    02:00 +4°C° 0 mm 1 m/s 747 mmHg 69%
    03:00 +3°C° 0 mm 1 m/s 747 mmHg 69%
    04:00 +3°C° 0 mm 1 m/s 747 mmHg 69%
    05:00 +3°C° 0 mm 1 m/s 747 mmHg 69%
    06:00 +2°C° 0 mm 1 m/s 747 mmHg 70%
    07:00 +2°C° 0 mm 1 m/s 747 mmHg 71%
    08:00 +3°C° 0 mm 1 m/s 747 mmHg 66%
    09:00 +4°C° 0 mm 1 m/s 747 mmHg 61%
    10:00 +5°C° 0 mm 1 m/s 747 mmHg 57%
    11:00 +6°C° 0 mm 1 m/s 747 mmHg 52%
    12:00 +8°C° 0 mm 1 m/s 747 mmHg 48%
    13:00 +9°C° 0 mm 1 m/s 746 mmHg 43%
    14:00 +9°C° 0 mm 1 m/s 746 mmHg 43%
    15:00 +10°C° 0 mm 1 m/s 746 mmHg 43%
    16:00 +10°C° 0 mm 1 m/s 746 mmHg 43%
    17:00 +9°C° 0 mm 1 m/s 746 mmHg 46%
    18:00 +8°C° 0 mm 1 m/s 747 mmHg 50%
    19:00 +5°C° 0 mm 0 m/s 747 mmHg 53%
    20:00 +5°C° 0 mm 0 m/s 748 mmHg 54%
    21:00 +5°C° 0 mm 0 m/s 748 mmHg 55%
    22:00 +4°C° 0 mm 0 m/s 748 mmHg 56%
    23:00 +4°C° 0 mm 0 m/s 749 mmHg 57%

    25 Februarie, Luni

    Timp Temperatura Precipitaţii Vânt Presiune Umiditate
    00:00 +4°C° 0 mm 0 m/s 749 mmHg 58%
    01:00 +5°C° 0 mm 1 m/s 749 mmHg 60%
    02:00 +5°C° 0 mm 1 m/s 749 mmHg 60%
    03:00 +5°C° 0 mm 1 m/s 748 mmHg 61%
    04:00 +5°C° 0 mm 1 m/s 748 mmHg 62%
    05:00 +5°C° 0 mm 1 m/s 748 mmHg 62%
    06:00 +3°C° 0 mm 0 m/s 748 mmHg 62%
    07:00 +3°C° 0 mm 0 m/s 748 mmHg 63%
    08:00 +5°C° 0 mm 0 m/s 748 mmHg 57%
    09:00 +7°C° 0 mm 0 m/s 748 mmHg 52%
    10:00 +8°C° 0 mm 0 m/s 748 mmHg 46%
    11:00 +10°C° 0 mm 0 m/s 748 mmHg 42%
    12:00 +12°C° 0 mm 1 m/s 747 mmHg 38%
    13:00 +14°C° 0 mm 1 m/s 747 mmHg 34%
    14:00 +14°C° 0 mm 1 m/s 747 mmHg 34%
    15:00 +14°C° 0 mm 1 m/s 747 mmHg 34%
    16:00 +14°C° 0 mm 1 m/s 746 mmHg 33%
    17:00 +13°C° 0 mm 1 m/s 747 mmHg 38%
    18:00 +11°C° 0 mm 1 m/s 747 mmHg 42%
    19:00 +10°C° 0 mm 1 m/s 747 mmHg 46%
    20:00 +10°C° 0 mm 1 m/s 747 mmHg 48%
    21:00 +9°C° 0 mm 1 m/s 747 mmHg 49%
    22:00 +9°C° 0 mm 1 m/s 748 mmHg 50%
    23:00 +9°C° 0 mm 1 m/s 747 mmHg 50%

    26 Februarie, Marţi

    Timp Temperatura Precipitaţii Vânt Presiune Umiditate
    00:00 +9°C° 0 mm 1 m/s 747 mmHg 49%
    01:00 +9°C° 0 mm 1 m/s 747 mmHg 49%
    02:00 +9°C° 0 mm 1 m/s 747 mmHg 48%
    03:00 +8°C° 0 mm 1 m/s 746 mmHg 47%
    04:00 +8°C° 0 mm 1 m/s 746 mmHg 47%
    05:00 +8°C° 0 mm 1 m/s 746 mmHg 46%
    06:00 +8°C° 0 mm 1 m/s 745 mmHg 46%
    07:00 +8°C° 0 mm 1 m/s 745 mmHg 45%
    08:00 +10°C° 0 mm 1 m/s 745 mmHg 43%
    09:00 +11°C° 0 mm 1 m/s 745 mmHg 41%
    10:00 +13°C° 0 mm 1 m/s 745 mmHg 38%
    11:00 +14°C° 0 mm 1 m/s 745 mmHg 36%
    12:00 +16°C° 0 mm 1 m/s 744 mmHg 34%
    13:00 +18°C° 0 mm 1 m/s 744 mmHg 32%
    14:00 +18°C° 0 mm 1 m/s 744 mmHg 33%
    15:00 +18°C° 0 mm 1 m/s 744 mmHg 33%
    16:00 +18°C° 0 mm 1 m/s 743 mmHg 34%
    17:00 +16°C° 0 mm 1 m/s 744 mmHg 39%
    18:00 +13°C° 0 mm 0 m/s 744 mmHg 44%
    19:00 +11°C° 0 mm 0 m/s 744 mmHg 49%
    20:00 +11°C° 0 mm 0 m/s 744 mmHg 50%
    21:00 +12°C° 0 mm 1 m/s 744 mmHg 51%
    22:00 +11°C° 0 mm 1 m/s 744 mmHg 52%
    23:00 +11°C° 0 mm 1 m/s 744 mmHg 52%

    27 Februarie, Miercuri

    Timp Temperatura Precipitaţii Vânt Presiune Umiditate
    00:00 +11°C° 0 mm 1 m/s 743 mmHg 52%
    01:00 +10°C° 0 mm 1 m/s 743 mmHg 52%
    02:00 +10°C° 0 mm 1 m/s 743 mmHg 51%
    03:00 +10°C° 0 mm 1 m/s 743 mmHg 51%
    04:00 +10°C° 0 mm 1 m/s 742 mmHg 50%
    05:00 +10°C° 0 mm 1 m/s 742 mmHg 49%
    06:00 +9°C° 0 mm 1 m/s 742 mmHg 48%
    07:00 +9°C° 0 mm 1 m/s 742 mmHg 47%
    08:00 +11°C° 0 mm 1 m/s 742 mmHg 43%
    09:00 +12°C° 0 mm 0 m/s 742 mmHg 39%
    10:00 +14°C° 0 mm 0 m/s 743 mmHg 36%
    11:00 +16°C° 0 mm 1 m/s 742 mmHg 34%
    12:00 +18°C° 0 mm 1 m/s 742 mmHg 33%
    13:00 +19°C° 0 mm 1 m/s 742 mmHg 31%
    14:00 +19°C° 0 mm 1 m/s 742 mmHg 32%
    15:00 +19°C° 0 mm 1 m/s 741 mmHg 33%
    16:00 +19°C° 0 mm 1 m/s 741 mmHg 34%
    17:00 +16°C° 0 mm 1 m/s 741 mmHg 39%
    18:00 +14°C° 0 mm 0 m/s 741 mmHg 44%
    19:00 +12°C° 0 mm 0 m/s 742 mmHg 49%
    20:00 +12°C° 0 mm 0 m/s 742 mmHg 50%
    21:00 +11°C° 0 mm 0 m/s 742 mmHg 51%
    22:00 +12°C° 0 mm 1 m/s 742 mmHg 52%
    23:00 +12°C° 0 mm 1 m/s 741 mmHg 52%
    Arată mai mult